| time (UTC) | temp F | wind direction | speed MPH | gust MPH | rain 1hr in | rain 24hr in | rain mn in | humidity % | barometer mb |
| 20260510060555 | 48 | 300 | 5.0 | 15.0 | 0.00 | 0.01 | 0.00 | 62 | 1008.1 |
| 20260510060101 | 49 | 304 | 4.0 | 12.0 | 0.00 | 0.01 | 0.00 | 63 | 1007.9 |
| 20260510055556 | 49 | 299 | 4.0 | 10.0 | 0.00 | 0.01 | 0.00 | 63 | 1007.8 |
| 20260510055053 | 49 | 325 | 3.0 | 9.0 | 0.00 | 0.01 | 0.00 | 63 | 1007.8 |
| 20260510054559 | 49 | 327 | 4.0 | 9.0 | 0.00 | 0.01 | 0.00 | 64 | 1007.8 |
| 20260510054055 | 49 | 311 | 4.0 | 8.0 | 0.00 | 0.01 | 0.00 | 63 | 1007.6 |
| 20260510053556 | 49 | 315 | 4.0 | 8.0 | 0.00 | 0.01 | 0.00 | 64 | 1007.5 |
| 20260510053102 | 49 | 285 | 3.0 | 10.0 | 0.00 | 0.01 | 0.00 | 64 | 1007.6 |
| 20260510052557 | 49 | 285 | 4.0 | 10.0 | 0.00 | 0.01 | 0.00 | 64 | 1007.6 |
| 20260510052057 | 49 | 318 | 3.0 | 9.0 | 0.00 | 0.01 | 0.00 | 64 | 1007.6 |
| 20260510051645 | 50 | 288 | 4.0 | 8.0 | 0.00 | 0.01 | 0.00 | 64 | 1007.6 |
| 20260510051100 | 50 | 309 | 2.0 | 7.0 | 0.00 | 0.01 | 0.00 | 64 | 1007.5 |
| 20260510050559 | 50 | 321 | 2.0 | 9.0 | 0.00 | 0.01 | 0.00 | 63 | 1007.5 |
| 20260510050058 | 50 | 348 | 3.0 | 9.0 | 0.00 | 0.01 | 0.00 | 63 | 1007.7 |
| 20260510045555 | 50 | 301 | 2.0 | 6.0 | 0.00 | 0.01 | 0.00 | 65 | 1007.6 |
| 20260510045057 | 50 | 310 | 2.0 | 5.0 | 0.00 | 0.01 | 0.00 | 65 | 1007.5 |
| 20260510044557 | 50 | 306 | 1.0 | 6.0 | 0.00 | 0.01 | 0.00 | 64 | 1007.1 |
| 20260510044056 | 50 | 236 | 1.0 | 7.0 | 0.00 | 0.01 | 0.00 | 63 | 1007.1 |
| 20260510043553 | 50 | 329 | 3.0 | 10.0 | 0.00 | 0.01 | 0.00 | 63 | 1007.1 |
| 20260510043143 | 50 | 312 | 4.0 | 10.0 | 0.00 | 0.01 | 0.00 | 63 | 1007.2 |
| 20260510042556 | 50 | 288 | 3.0 | 8.0 | 0.00 | 0.01 | 0.00 | 63 | 1007.0 |
| 20260510042057 | 50 | 0 | 3.0 | 9.0 | 0.00 | 0.01 | 0.00 | 63 | 1006.9 |
| 20260510041558 | 50 | 325 | 2.0 | 9.0 | 0.00 | 0.01 | 0.00 | 64 | 1006.7 |
| 20260510041057 | 50 | 296 | 4.0 | 11.0 | 0.00 | 0.01 | 0.00 | 64 | 1006.8 |
| 20260510040555 | 50 | 303 | 4.0 | 11.0 | 0.00 | 0.01 | 0.00 | 65 | 1006.8 |
| 20260510040058 | 50 | 338 | 4.0 | 8.0 | 0.00 | 0.01 | 0.00 | 65 | 1006.7 |
| 20260510035557 | 50 | 304 | 3.0 | 8.0 | 0.00 | 0.01 | 0.01 | 68 | 1006.6 |
| 20260510035058 | 50 | 321 | 3.0 | 7.0 | 0.00 | 0.01 | 0.01 | 68 | 1006.6 |
| 20260510034557 | 50 | 336 | 1.0 | 6.0 | 0.00 | 0.01 | 0.01 | 68 | 1006.5 |
| 20260510034057 | 50 | 314 | 2.0 | 7.0 | 0.00 | 0.01 | 0.01 | 67 | 1006.4 |
| 20260510033556 | 51 | 355 | 2.0 | 7.0 | 0.00 | 0.01 | 0.01 | 66 | 1006.2 |
| 20260510033057 | 51 | 0 | 1.0 | 5.0 | 0.00 | 0.01 | 0.01 | 66 | 1006.2 |
| 20260510032554 | 51 | 302 | 2.0 | 4.0 | 0.00 | 0.01 | 0.01 | 65 | 1006.2 |
| 20260510032054 | 51 | 5 | 1.0 | 4.0 | 0.00 | 0.01 | 0.01 | 66 | 1006.0 |
| 20260510031627 | 51 | 0 | 1.0 | 4.0 | 0.00 | 0.01 | 0.01 | 64 | 1005.9 |
| 20260510031057 | 52 | 16 | 1.0 | 6.0 | 0.00 | 0.01 | 0.01 | 65 | 1005.8 |
| 20260510030557 | 52 | 0 | 2.0 | 10.0 | 0.00 | 0.01 | 0.01 | 65 | 1005.8 |
| 20260510030059 | 52 | 338 | 3.0 | 11.0 | 0.00 | 0.01 | 0.01 | 66 | 1006.1 |
| 20260510025554 | 53 | 323 | 2.0 | 13.0 | 0.00 | 0.01 | 0.01 | 71 | 1006.1 |
| 20260510025057 | 53 | 279 | 5.0 | 13.0 | 0.00 | 0.01 | 0.01 | 71 | 1005.9 |
| 20260510024559 | 53 | 11 | 1.0 | 9.0 | 0.00 | 0.01 | 0.01 | 73 | 1006.1 |
| 20260510024058 | 53 | 330 | 2.0 | 9.0 | 0.00 | 0.01 | 0.01 | 72 | 1005.9 |
| 20260510023557 | 53 | 316 | 4.0 | 12.0 | 0.00 | 0.01 | 0.01 | 73 | 1006.0 |
| 20260510023101 | 53 | 335 | 4.0 | 12.0 | 0.00 | 0.01 | 0.01 | 75 | 1006.0 |
| 20260510022558 | 53 | 335 | 7.0 | 12.0 | 0.00 | 0.01 | 0.01 | 78 | 1005.9 |
| 20260510022057 | 53 | 333 | 5.0 | 10.0 | 0.00 | 0.01 | 0.01 | 85 | 1005.7 |
| 20260510021558 | 53 | 311 | 4.0 | 9.0 | 0.00 | 0.01 | 0.01 | 88 | 1005.6 |
| 20260510021057 | 53 | 320 | 3.0 | 8.0 | 0.00 | 0.01 | 0.01 | 88 | 1005.4 |
| 20260510020558 | 52 | 284 | 2.0 | 8.0 | 0.00 | 0.01 | 0.01 | 89 | 1005.3 |
| 20260510020100 | 52 | 273 | 2.0 | 8.0 | 0.00 | 0.01 | 0.01 | 89 | 1005.1 |
| 20260510015554 | 52 | 304 | 2.0 | 8.0 | 0.00 | 0.01 | 0.01 | 90 | 1005.1 |
| 20260510015057 | 52 | 261 | 3.0 | 8.0 | 0.00 | 0.01 | 0.01 | 90 | 1004.8 |
| 20260510014556 | 52 | 268 | 2.0 | 8.0 | 0.00 | 0.01 | 0.01 | 90 | 1004.8 |
| 20260510014057 | 51 | 252 | 2.0 | 5.0 | 0.00 | 0.01 | 0.01 | 91 | 1004.5 |
| 20260510013559 | 51 | 243 | 2.0 | 4.0 | 0.00 | 0.01 | 0.01 | 90 | 1004.4 |
| 20260510013056 | 51 | 262 | 2.0 | 4.0 | 0.00 | 0.01 | 0.01 | 90 | 1004.2 |
| 20260510012600 | 51 | 221 | 2.0 | 4.0 | 0.00 | 0.01 | 0.01 | 89 | 1003.9 |
| 20260510012057 | 51 | 235 | 0.0 | 3.0 | 0.00 | 0.01 | 0.01 | 88 | 1003.8 |
| 20260510011622 | 52 | 0 | 0.0 | 3.0 | 0.00 | 0.01 | 0.01 | 88 | 1003.8 |
| 20260510011058 | 52 | 251 | 0.0 | 4.0 | 0.00 | 0.01 | 0.01 | 88 | 1003.7 |
| 20260510010556 | 52 | 0 | 0.0 | 4.0 | 0.00 | 0.01 | 0.01 | 87 | 1003.6 |
| 20260510010107 | 52 | 231 | 2.0 | 4.0 | 0.00 | 0.01 | 0.01 | 87 | 1003.5 |
| 20260510005559 | 52 | 228 | 1.0 | 4.0 | 0.00 | 0.01 | 0.01 | 87 | 1003.4 |
| 20260510005057 | 53 | 227 | 0.0 | 3.0 | 0.00 | 0.01 | 0.01 | 86 | 1003.3 |
| 20260510004559 | 53 | 0 | 0.0 | 4.0 | 0.00 | 0.01 | 0.01 | 86 | 1003.4 |
| 20260510004057 | 53 | 0 | 1.0 | 6.0 | 0.00 | 0.01 | 0.01 | 86 | 1003.3 |
| 20260510003555 | 53 | 227 | 2.0 | 8.0 | 0.00 | 0.01 | 0.01 | 86 | 1003.2 |
| 20260510003103 | 54 | 217 | 2.0 | 8.0 | 0.00 | 0.01 | 0.01 | 86 | 1003.2 |
| 20260510002554 | 54 | 221 | 4.0 | 8.0 | 0.00 | 0.01 | 0.01 | 86 | 1003.0 |
| 20260510002054 | 54 | 202 | 3.0 | 11.0 | 0.00 | 0.01 | 0.01 | 86 | 1003.0 |
| 20260510001559 | 54 | 212 | 5.0 | 11.0 | 0.00 | 0.01 | 0.01 | 86 | 1003.2 |
| 20260510001054 | 54 | 230 | 3.0 | 11.0 | 0.00 | 0.01 | 0.01 | 85 | 1003.0 |
| 20260510000556 | 54 | 274 | 2.0 | 8.0 | 0.00 | 0.01 | 0.01 | 85 | 1003.1 |
| 20260510000056 | 54 | 273 | 2.0 | 8.0 | 0.00 | 0.01 | 0.01 | 84 | 1002.9 |
| 20260509235554 | 54 | 270 | 3.0 | 12.0 | 0.00 | 0.01 | 0.01 | 84 | 1002.7 |
| 20260509235056 | 55 | 241 | 3.0 | 12.0 | 0.00 | 0.01 | 0.01 | 84 | 1002.7 |
| 20260509234608 | 55 | 286 | 6.0 | 12.0 | 0.00 | 0.00 | 0.00 | 82 | 1002.6 |
| 20260509234054 | 55 | 248 | 4.0 | 11.0 | 0.00 | 0.00 | 0.00 | 83 | 1002.5 |
| 20260509233556 | 55 | 234 | 3.0 | 9.0 | 0.00 | 0.00 | 0.00 | 82 | 1002.5 |
| 20260509233102 | 55 | 245 | 3.0 | 9.0 | 0.00 | 0.00 | 0.00 | 82 | 1002.4 |
| 20260509232558 | 55 | 232 | 4.0 | 9.0 | 0.00 | 0.00 | 0.00 | 82 | 1002.2 |
| 20260509232055 | 55 | 274 | 2.0 | 9.0 | 0.00 | 0.00 | 0.00 | 82 | 1001.9 |
| 20260509231605 | 55 | 212 | 4.0 | 14.0 | 0.00 | 0.00 | 0.00 | 81 | 1001.9 |
| 20260509231054 | 56 | 203 | 6.0 | 14.0 | 0.00 | 0.00 | 0.00 | 80 | 1001.7 |
| 20260509230554 | 56 | 207 | 6.0 | 14.0 | 0.00 | 0.00 | 0.00 | 80 | 1001.7 |
| 20260509230057 | 56 | 210 | 6.0 | 14.0 | 0.00 | 0.00 | 0.00 | 80 | 1001.7 |
| 20260509225554 | 56 | 232 | 6.0 | 16.0 | 0.00 | 0.00 | 0.00 | 80 | 1001.8 |
| 20260509225058 | 56 | 224 | 3.0 | 16.0 | 0.00 | 0.00 | 0.00 | 81 | 1001.8 |
| 20260509224609 | 56 | 226 | 7.0 | 16.0 | 0.00 | 0.00 | 0.00 | 80 | 1001.9 |
| 20260509224057 | 55 | 206 | 6.0 | 15.0 | 0.00 | 0.00 | 0.00 | 82 | 1001.8 |
| 20260509223554 | 55 | 271 | 5.0 | 12.0 | 0.00 | 0.00 | 0.00 | 84 | 1001.9 |
| 20260509223101 | 54 | 262 | 3.0 | 11.0 | 0.00 | 0.00 | 0.00 | 86 | 1001.9 |
| 20260509222557 | 54 | 222 | 2.0 | 14.0 | 0.00 | 0.00 | 0.00 | 85 | 1001.8 |
| 20260509222057 | 54 | 232 | 6.0 | 15.0 | 0.00 | 0.00 | 0.00 | 84 | 1001.8 |
| 20260509221559 | 54 | 201 | 6.0 | 15.0 | 0.00 | 0.00 | 0.00 | 84 | 1001.7 |
| 20260509221057 | 54 | 243 | 5.0 | 16.0 | 0.00 | 0.00 | 0.00 | 84 | 1001.7 |
| 20260509220556 | 55 | 184 | 8.0 | 22.0 | 0.00 | 0.00 | 0.00 | 84 | 1001.7 |
| 20260509215600 | 55 | 221 | 9.0 | 24.0 | 0.00 | 0.00 | 0.00 | 81 | 1001.7 |
| 20260509215100 | 56 | 202 | 8.0 | 19.0 | 0.00 | 0.00 | 0.00 | 82 | 1001.7 |
| 20260509214557 | 57 | 228 | 2.0 | 14.0 | 0.00 | 0.00 | 0.00 | 83 | 1002.2 |
| 20260509214054 | 57 | 267 | 5.0 | 14.0 | 0.00 | 0.00 | 0.00 | 82 | 1001.9 |
| 20260509213557 | 58 | 232 | 3.0 | 11.0 | 0.00 | 0.00 | 0.00 | 81 | 1002.0 |
| 20260509213116 | 58 | 192 | 2.0 | 12.0 | 0.00 | 0.00 | 0.00 | 79 | 1001.8 |
| 20260509212554 | 58 | 186 | 5.0 | 15.0 | 0.00 | 0.00 | 0.00 | 76 | 1001.9 |
| 20260509212057 | 58 | 231 | 4.0 | 15.0 | 0.00 | 0.00 | 0.00 | 75 | 1002.0 |
| 20260509211614 | 59 | 208 | 3.0 | 12.0 | 0.00 | 0.00 | 0.00 | 74 | 1002.1 |
| 20260509211054 | 59 | 182 | 5.0 | 12.0 | 0.00 | 0.00 | 0.00 | 74 | 1002.1 |
| 20260509210555 | 59 | 221 | 4.0 | 11.0 | 0.00 | 0.00 | 0.00 | 73 | 1002.1 |
| 20260509210100 | 59 | 242 | 5.0 | 14.0 | 0.00 | 0.00 | 0.00 | 73 | 1001.9 |
| 20260509205558 | 59 | 258 | 4.0 | 15.0 | 0.00 | 0.00 | 0.00 | 72 | 1001.7 |
| 20260509205057 | 59 | 207 | 5.0 | 16.0 | 0.00 | 0.00 | 0.00 | 72 | 1001.5 |
| 20260509204603 | 59 | 182 | 5.0 | 19.0 | 0.00 | 0.00 | 0.00 | 72 | 1001.5 |
| 20260509204057 | 59 | 195 | 6.0 | 19.0 | 0.00 | 0.00 | 0.00 | 72 | 1001.3 |
| 20260509203557 | 59 | 236 | 6.0 | 17.0 | 0.00 | 0.00 | 0.00 | 72 | 1001.3 |
| 20260509203101 | 59 | 241 | 5.0 | 18.0 | 0.00 | 0.00 | 0.00 | 72 | 1001.6 |
| 20260509202558 | 59 | 188 | 5.0 | 18.0 | 0.00 | 0.00 | 0.00 | 71 | 1001.8 |
| 20260509202057 | 59 | 190 | 4.0 | 16.0 | 0.00 | 0.00 | 0.00 | 71 | 1001.8 |
| 20260509201557 | 59 | 186 | 5.0 | 16.0 | 0.00 | 0.00 | 0.00 | 71 | 1001.8 |
| 20260509201056 | 59 | 209 | 4.0 | 13.0 | 0.00 | 0.00 | 0.00 | 71 | 1001.8 |
| 20260509200557 | 59 | 227 | 4.0 | 16.0 | 0.00 | 0.00 | 0.00 | 72 | 1001.8 |
| 20260509195555 | 59 | 151 | 3.0 | 15.0 | 0.00 | 0.00 | 0.00 | 72 | 1002.4 |
| 20260509195059 | 59 | 115 | 5.0 | 15.0 | 0.00 | 0.00 | 0.00 | 71 | 1002.3 |
| 20260509194601 | 59 | 202 | 5.0 | 12.0 | 0.00 | 0.00 | 0.00 | 71 | 1002.4 |
| 20260509194055 | 59 | 184 | 4.0 | 12.0 | 0.00 | 0.00 | 0.00 | 72 | 1002.4 |
| 20260509193557 | 59 | 169 | 4.0 | 12.0 | 0.00 | 0.00 | 0.00 | 71 | 1002.5 |
| 20260509193057 | 59 | 214 | 4.0 | 11.0 | 0.00 | 0.00 | 0.00 | 70 | 1002.7 |
| 20260509192557 | 60 | 208 | 3.0 | 14.0 | 0.00 | 0.00 | 0.00 | 69 | 1002.8 |
| 20260509192057 | 60 | 150 | 4.0 | 14.0 | 0.00 | 0.00 | 0.00 | 70 | 1002.6 |
| 20260509191559 | 60 | 206 | 5.0 | 14.0 | 0.00 | 0.00 | 0.00 | 70 | 1002.7 |
| 20260509191055 | 60 | 202 | 5.0 | 18.0 | 0.00 | 0.00 | 0.00 | 71 | 1002.7 |
| 20260509190558 | 60 | 188 | 4.0 | 18.0 | 0.00 | 0.00 | 0.00 | 69 | 1002.7 |
| 20260509190100 | 60 | 189 | 5.0 | 16.0 | 0.00 | 0.00 | 0.00 | 69 | 1002.8 |
| 20260509185554 | 61 | 221 | 7.0 | 16.0 | 0.00 | 0.00 | 0.00 | 68 | 1002.7 |
| 20260509185057 | 61 | 196 | 5.0 | 15.0 | 0.00 | 0.00 | 0.00 | 69 | 1002.8 |
| 20260509184558 | 61 | 179 | 5.0 | 17.0 | 0.00 | 0.00 | 0.00 | 70 | 1002.9 |
| 20260509184057 | 61 | 148 | 5.0 | 18.0 | 0.00 | 0.00 | 0.00 | 69 | 1002.9 |
| 20260509183557 | 61 | 195 | 4.0 | 18.0 | 0.00 | 0.00 | 0.00 | 70 | 1002.8 |
| 20260509183057 | 61 | 200 | 7.0 | 18.0 | 0.00 | 0.00 | 0.00 | 70 | 1002.9 |
| 20260509182556 | 61 | 205 | 6.0 | 14.0 | 0.00 | 0.00 | 0.00 | 69 | 1002.8 |
| 20260509182057 | 61 | 213 | 6.0 | 14.0 | 0.00 | 0.00 | 0.00 | 69 | 1002.9 |
| 20260509181611 | 62 | 145 | 5.0 | 19.0 | 0.00 | 0.00 | 0.00 | 68 | 1002.8 |
| 20260509181057 | 62 | 180 | 6.0 | 19.0 | 0.00 | 0.00 | 0.00 | 66 | 1002.9 |
| 20260509180558 | 63 | 157 | 6.0 | 18.0 | 0.00 | 0.00 | 0.00 | 67 | 1002.9 |
| 20260509180100 | 63 | 182 | 5.0 | 18.0 | 0.00 | 0.00 | 0.00 | 67 | 1002.8 |
| 20260509175557 | 63 | 215 | 5.0 | 21.0 | 0.00 | 0.00 | 0.00 | 67 | 1003.0 |
| 20260509175057 | 62 | 209 | 5.0 | 21.0 | 0.00 | 0.00 | 0.00 | 68 | 1003.1 |
| 20260509174556 | 62 | 227 | 7.0 | 21.0 | 0.00 | 0.00 | 0.00 | 68 | 1003.1 |
| 20260509174057 | 62 | 182 | 7.0 | 19.0 | 0.00 | 0.00 | 0.00 | 68 | 1003.3 |
| 20260509173556 | 62 | 224 | 7.0 | 19.0 | 0.00 | 0.00 | 0.00 | 67 | 1003.2 |
| 20260509173107 | 62 | 203 | 4.0 | 13.0 | 0.00 | 0.00 | 0.00 | 68 | 1003.4 |
| 20260509172557 | 62 | 177 | 4.0 | 15.0 | 0.00 | 0.00 | 0.00 | 68 | 1003.4 |
| 20260509172100 | 62 | 178 | 5.0 | 15.0 | 0.00 | 0.00 | 0.00 | 69 | 1003.6 |
| 20260509171607 | 62 | 178 | 5.0 | 14.0 | 0.00 | 0.00 | 0.00 | 69 | 1003.8 |
| 20260509171057 | 61 | 246 | 5.0 | 12.0 | 0.00 | 0.00 | 0.00 | 71 | 1003.9 |
| 20260509170556 | 61 | 200 | 5.0 | 15.0 | 0.00 | 0.00 | 0.00 | 70 | 1004.0 |
| 20260509170100 | 61 | 211 | 8.0 | 15.0 | 0.00 | 0.00 | 0.00 | 72 | 1004.0 |
| 20260509165556 | 60 | 173 | 5.0 | 13.0 | 0.00 | 0.00 | 0.00 | 72 | 1004.1 |
| 20260509165056 | 60 | 148 | 4.0 | 14.0 | 0.00 | 0.00 | 0.00 | 72 | 1004.0 |
| 20260509164554 | 60 | 173 | 3.0 | 14.0 | 0.00 | 0.00 | 0.00 | 73 | 1004.1 |
| 20260509164056 | 59 | 181 | 6.0 | 14.0 | 0.00 | 0.00 | 0.00 | 73 | 1004.0 |
| 20260509163600 | 59 | 218 | 5.0 | 12.0 | 0.00 | 0.00 | 0.00 | 73 | 1004.0 |
| 20260509163101 | 59 | 155 | 5.0 | 16.0 | 0.00 | 0.00 | 0.00 | 73 | 1004.2 |
| 20260509162556 | 59 | 184 | 5.0 | 16.0 | 0.00 | 0.00 | 0.00 | 75 | 1004.1 |
| 20260509162056 | 59 | 198 | 4.0 | 16.0 | 0.00 | 0.00 | 0.00 | 75 | 1004.1 |
| 20260509161557 | 58 | 211 | 5.0 | 16.0 | 0.00 | 0.00 | 0.00 | 78 | 1004.3 |
| 20260509161056 | 58 | 243 | 5.0 | 12.0 | 0.00 | 0.00 | 0.00 | 79 | 1004.4 |
| 20260509160557 | 57 | 121 | 3.0 | 8.0 | 0.00 | 0.00 | 0.00 | 81 | 1004.4 |
| 20260509160100 | 56 | 239 | 4.0 | 9.0 | 0.00 | 0.00 | 0.00 | 81 | 1004.5 |
| 20260509155556 | 56 | 223 | 4.0 | 11.0 | 0.00 | 0.00 | 0.00 | 80 | 1004.6 |
| 20260509155056 | 56 | 209 | 3.0 | 13.0 | 0.00 | 0.00 | 0.00 | 80 | 1004.7 |
| 20260509154559 | 56 | 187 | 5.0 | 13.0 | 0.00 | 0.00 | 0.00 | 81 | 1004.7 |
| 20260509154057 | 56 | 216 | 5.0 | 13.0 | 0.00 | 0.00 | 0.00 | 81 | 1004.8 |
| 20260509153556 | 56 | 238 | 2.0 | 7.0 | 0.00 | 0.00 | 0.00 | 81 | 1005.0 |
| 20260509153056 | 55 | 219 | 4.0 | 9.0 | 0.00 | 0.00 | 0.00 | 83 | 1005.0 |
| 20260509152557 | 55 | 225 | 3.0 | 9.0 | 0.00 | 0.00 | 0.00 | 83 | 1005.0 |
| 20260509152057 | 54 | 176 | 2.0 | 10.0 | 0.00 | 0.00 | 0.00 | 84 | 1005.0 |
| 20260509151557 | 54 | 232 | 3.0 | 10.0 | 0.00 | 0.00 | 0.00 | 84 | 1005.2 |
| 20260509151057 | 53 | 211 | 2.0 | 7.0 | 0.00 | 0.00 | 0.00 | 85 | 1005.2 |
| 20260509150557 | 53 | 178 | 2.0 | 7.0 | 0.00 | 0.00 | 0.00 | 85 | 1005.3 |
| 20260509150058 | 53 | 188 | 1.0 | 7.0 | 0.00 | 0.00 | 0.00 | 85 | 1005.2 |
| 20260509145558 | 53 | 204 | 1.0 | 8.0 | 0.00 | 0.00 | 0.00 | 85 | 1005.1 |
| 20260509145058 | 53 | 215 | 1.0 | 9.0 | 0.00 | 0.00 | 0.00 | 84 | 1005.2 |
| 20260509144554 | 53 | 192 | 2.0 | 9.0 | 0.00 | 0.00 | 0.00 | 84 | 1005.2 |
| 20260509144059 | 53 | 209 | 3.0 | 11.0 | 0.00 | 0.00 | 0.00 | 83 | 1005.4 |
| 20260509143557 | 53 | 239 | 3.0 | 11.0 | 0.00 | 0.00 | 0.00 | 82 | 1005.4 |
| 20260509143106 | 54 | 159 | 4.0 | 11.0 | 0.00 | 0.00 | 0.00 | 82 | 1005.5 |
| 20260509142557 | 54 | 177 | 2.0 | 9.0 | 0.00 | 0.00 | 0.00 | 83 | 1005.4 |
| 20260509142057 | 54 | 235 | 3.0 | 9.0 | 0.00 | 0.00 | 0.00 | 83 | 1005.5 |
| 20260509141600 | 54 | 234 | 3.0 | 7.0 | 0.00 | 0.00 | 0.00 | 83 | 1005.5 |
| 20260509141058 | 53 | 210 | 2.0 | 7.0 | 0.00 | 0.00 | 0.00 | 82 | 1005.5 |
| 20260509140600 | 53 | 194 | 2.0 | 7.0 | 0.00 | 0.00 | 0.00 | 82 | 1005.5 |
| 20260509140114 | 53 | 163 | 1.0 | 6.0 | 0.00 | 0.00 | 0.00 | 82 | 1005.5 |
| 20260509135557 | 53 | 161 | 2.0 | 7.0 | 0.00 | 0.00 | 0.00 | 81 | 1005.5 |
| 20260509135057 | 53 | 202 | 2.0 | 8.0 | 0.00 | 0.00 | 0.00 | 80 | 1005.7 |
| 20260509134600 | 53 | 217 | 2.0 | 9.0 | 0.00 | 0.00 | 0.00 | 80 | 1005.7 |
| 20260509134057 | 53 | 161 | 3.0 | 9.0 | 0.00 | 0.00 | 0.00 | 76 | 1005.6 |
| 20260509133557 | 53 | 165 | 2.0 | 7.0 | 0.00 | 0.00 | 0.00 | 76 | 1005.6 |
| 20260509133104 | 52 | 210 | 3.0 | 10.0 | 0.00 | 0.00 | 0.00 | 76 | 1005.8 |
| 20260509132557 | 52 | 231 | 1.0 | 10.0 | 0.00 | 0.00 | 0.00 | 76 | 1005.8 |
| 20260509132057 | 52 | 180 | 3.0 | 9.0 | 0.00 | 0.00 | 0.00 | 76 | 1005.9 |
| 20260509131558 | 52 | 169 | 1.0 | 8.0 | 0.00 | 0.00 | 0.00 | 77 | 1005.9 |
| 20260509131100 | 52 | 187 | 2.0 | 8.0 | 0.00 | 0.00 | 0.00 | 76 | 1005.9 |
| 20260509130557 | 51 | 167 | 3.0 | 8.0 | 0.00 | 0.00 | 0.00 | 75 | 1005.9 |
| 20260509125557 | 50 | 157 | 2.0 | 7.0 | 0.00 | 0.00 | 0.00 | 73 | 1006.0 |
| 20260509125058 | 50 | 112 | 3.0 | 7.0 | 0.00 | 0.00 | 0.00 | 73 | 1006.0 |
| 20260509124606 | 49 | 101 | 3.0 | 7.0 | 0.00 | 0.00 | 0.00 | 74 | 1006.0 |
| 20260509124057 | 49 | 107 | 2.0 | 5.0 | 0.00 | 0.00 | 0.00 | 74 | 1006.1 |
| 20260509123600 | 48 | 127 | 2.0 | 6.0 | 0.00 | 0.00 | 0.00 | 74 | 1006.1 |
| 20260509123101 | 47 | 131 | 2.0 | 6.0 | 0.00 | 0.00 | 0.00 | 74 | 1006.1 |
| 20260509122557 | 47 | 131 | 1.0 | 7.0 | 0.00 | 0.00 | 0.00 | 74 | 1006.1 |
| 20260509122057 | 46 | 145 | 2.0 | 8.0 | 0.00 | 0.00 | 0.00 | 75 | 1006.1 |
| 20260509121556 | 46 | 126 | 3.0 | 8.0 | 0.00 | 0.00 | 0.00 | 76 | 1006.1 |
| 20260509121058 | 45 | 119 | 2.0 | 8.0 | 0.00 | 0.00 | 0.00 | 75 | 1006.0 |
| 20260509120557 | 45 | 115 | 3.0 | 9.0 | 0.00 | 0.00 | 0.00 | 75 | 1006.0 |
| 20260509120058 | 44 | 140 | 2.0 | 9.0 | 0.00 | 0.00 | 0.00 | 75 | 1006.0 |
| 20260509115556 | 44 | 0 | 3.0 | 7.0 | 0.00 | 0.00 | 0.00 | 76 | 1005.8 |
| 20260509115056 | 44 | 0 | 1.0 | 4.0 | 0.00 | 0.00 | 0.00 | 77 | 1005.9 |
| 20260509114600 | 43 | 139 | 1.0 | 4.0 | 0.00 | 0.00 | 0.00 | 77 | 1006.0 |
| 20260509114057 | 43 | 0 | 0.0 | 5.0 | 0.00 | 0.00 | 0.00 | 78 | 1006.2 |
| 20260509113556 | 43 | 160 | 1.0 | 7.0 | 0.00 | 0.00 | 0.00 | 79 | 1006.1 |
| 20260509113059 | 42 | 119 | 1.0 | 7.0 | 0.00 | 0.00 | 0.00 | 81 | 1006.1 |
| 20260509112556 | 41 | 165 | 1.0 | 3.0 | 0.00 | 0.00 | 0.00 | 81 | 1006.0 |
| 20260509112057 | 41 | 138 | 0.0 | 4.0 | 0.00 | 0.00 | 0.00 | 82 | 1006.1 |
| 20260509111558 | 40 | 0 | 1.0 | 4.0 | 0.00 | 0.00 | 0.00 | 84 | 1006.2 |
| 20260509111057 | 40 | 121 | 0.0 | 2.0 | 0.00 | 0.00 | 0.00 | 85 | 1006.2 |
| 20260509110602 | 39 | 118 | 0.0 | 2.0 | 0.00 | 0.00 | 0.00 | 86 | 1006.2 |
| 20260509105557 | 39 | 0 | 0.0 | 0.0 | 0.00 | 0.00 | 0.00 | 86 | 1006.2 |
| 20260509105057 | 38 | 0 | 0.0 | 0.0 | 0.00 | 0.00 | 0.00 | 87 | 1006.3 |
| 20260509104602 | 38 | 0 | 0.0 | 1.0 | 0.00 | 0.00 | 0.00 | 86 | 1006.4 |
| 20260509104057 | 38 | 0 | 0.0 | 1.0 | 0.00 | 0.00 | 0.00 | 86 | 1006.4 |
| 20260509103555 | 38 | 0 | 0.0 | 1.0 | 0.00 | 0.00 | 0.00 | 86 | 1006.5 |
| 20260509103056 | 38 | 0 | 0.0 | 1.0 | 0.00 | 0.00 | 0.00 | 87 | 1006.5 |
| 20260509102557 | 37 | 0 | 0.0 | 0.0 | 0.00 | 0.00 | 0.00 | 87 | 1006.4 |
| 20260509102056 | 37 | 0 | 0.0 | 1.0 | 0.00 | 0.00 | 0.00 | 86 | 1006.4 |
| 20260509101557 | 37 | 0 | 0.0 | 1.0 | 0.00 | 0.00 | 0.00 | 86 | 1006.4 |
| 20260509101057 | 37 | 0 | 0.0 | 1.0 | 0.00 | 0.00 | 0.00 | 86 | 1006.5 |
| 20260509100557 | 37 | 0 | 0.0 | 1.0 | 0.00 | 0.00 | 0.00 | 86 | 1006.6 |
| 20260509100109 | 37 | 0 | 0.0 | 1.0 | 0.00 | 0.00 | 0.00 | 86 | 1006.5 |
| 20260509095558 | 37 | 0 | 0.0 | 0.0 | 0.00 | 0.00 | 0.00 | 85 | 1006.4 |
| 20260509095058 | 38 | 0 | 0.0 | 0.0 | 0.00 | 0.00 | 0.00 | 85 | 1006.4 |
| 20260509094555 | 38 | 0 | 0.0 | 0.0 | 0.00 | 0.00 | 0.00 | 85 | 1006.5 |
| 20260509094057 | 38 | 0 | 0.0 | 0.0 | 0.00 | 0.00 | 0.00 | 85 | 1006.5 |
| 20260509093557 | 38 | 0 | 0.0 | 0.0 | 0.00 | 0.00 | 0.00 | 85 | 1006.5 |
| 20260509093058 | 38 | 0 | 0.0 | 0.0 | 0.00 | 0.00 | 0.00 | 84 | 1006.6 |
| 20260509092557 | 38 | 0 | 0.0 | 0.0 | 0.00 | 0.00 | 0.00 | 84 | 1006.7 |
| 20260509092059 | 38 | 0 | 0.0 | 0.0 | 0.00 | 0.00 | 0.00 | 85 | 1006.6 |
| 20260509091556 | 38 | 0 | 0.0 | 0.0 | 0.00 | 0.00 | 0.00 | 84 | 1006.6 |
| 20260509091057 | 38 | 0 | 0.0 | 0.0 | 0.00 | 0.00 | 0.00 | 84 | 1006.6 |
| 20260509090557 | 38 | 0 | 0.0 | 0.0 | 0.00 | 0.00 | 0.00 | 84 | 1006.6 |
| 20260509090056 | 38 | 0 | 0.0 | 0.0 | 0.00 | 0.00 | 0.00 | 84 | 1006.7 |
| 20260509085559 | 39 | 0 | 0.0 | 0.0 | 0.00 | 0.00 | 0.00 | 84 | 1006.8 |
| 20260509085057 | 39 | 0 | 0.0 | 0.0 | 0.00 | 0.00 | 0.00 | 84 | 1006.8 |
| 20260509084604 | 39 | 0 | 0.0 | 0.0 | 0.00 | 0.00 | 0.00 | 84 | 1006.8 |
| 20260509084056 | 39 | 0 | 0.0 | 0.0 | 0.00 | 0.00 | 0.00 | 84 | 1006.8 |
| 20260509083601 | 39 | 0 | 0.0 | 0.0 | 0.00 | 0.00 | 0.00 | 84 | 1006.7 |
| 20260509083058 | 39 | 0 | 0.0 | 0.0 | 0.00 | 0.00 | 0.00 | 84 | 1006.8 |
| 20260509082557 | 39 | 0 | 0.0 | 0.0 | 0.00 | 0.00 | 0.00 | 84 | 1006.8 |
| 20260509082100 | 39 | 0 | 0.0 | 0.0 | 0.00 | 0.00 | 0.00 | 84 | 1006.9 |
| 20260509081559 | 39 | 0 | 0.0 | 0.0 | 0.00 | 0.00 | 0.00 | 84 | 1006.8 |
| 20260509081100 | 39 | 0 | 0.0 | 0.0 | 0.00 | 0.00 | 0.00 | 84 | 1006.9 |
| 20260509080557 | 39 | 0 | 0.0 | 1.0 | 0.00 | 0.00 | 0.00 | 84 | 1006.7 |
| 20260509080136 | 39 | 0 | 0.0 | 1.0 | 0.00 | 0.00 | 0.00 | 84 | 1006.9 |
| 20260509075557 | 39 | 0 | 0.0 | 1.0 | 0.00 | 0.00 | 0.00 | 84 | 1006.9 |
| 20260509075057 | 39 | 0 | 0.0 | 0.0 | 0.00 | 0.00 | 0.00 | 84 | 1006.9 |
| 20260509074556 | 39 | 0 | 0.0 | 0.0 | 0.00 | 0.00 | 0.00 | 83 | 1006.9 |
| 20260509074056 | 39 | 0 | 0.0 | 0.0 | 0.00 | 0.00 | 0.00 | 83 | 1006.9 |
| 20260509073557 | 39 | 0 | 0.0 | 0.0 | 0.00 | 0.00 | 0.00 | 82 | 1006.8 |
| 20260509073205 | 39 | 0 | 0.0 | 0.0 | 0.00 | 0.00 | 0.00 | 82 | 1006.9 |
| 20260509072557 | 39 | 0 | 0.0 | 0.0 | 0.00 | 0.00 | 0.00 | 81 | 1006.9 |
| 20260509072058 | 39 | 0 | 0.0 | 0.0 | 0.00 | 0.00 | 0.00 | 81 | 1007.0 |
| 20260509071557 | 39 | 0 | 0.0 | 0.0 | 0.00 | 0.00 | 0.00 | 80 | 1007.0 |
| 20260509071057 | 39 | 0 | 0.0 | 0.0 | 0.00 | 0.00 | 0.00 | 80 | 1006.9 |
| 20260509070558 | 40 | 0 | 0.0 | 0.0 | 0.00 | 0.00 | 0.00 | 79 | 1007.0 |
| 20260509070101 | 40 | 0 | 0.0 | 0.0 | 0.00 | 0.00 | 0.00 | 79 | 1007.0 |
| 20260509065557 | 40 | 0 | 0.0 | 0.0 | 0.00 | 0.00 | 0.00 | 79 | 1007.1 |
| 20260509065057 | 40 | 0 | 0.0 | 0.0 | 0.00 | 0.00 | 0.00 | 78 | 1007.2 |
| 20260509064556 | 41 | 0 | 0.0 | 0.0 | 0.00 | 0.00 | 0.00 | 78 | 1007.3 |
| 20260509064057 | 41 | 0 | 0.0 | 0.0 | 0.00 | 0.00 | 0.00 | 78 | 1007.3 |
| 20260509063557 | 41 | 0 | 0.0 | 0.0 | 0.00 | 0.00 | 0.00 | 77 | 1007.4 |
| 20260509063056 | 41 | 0 | 0.0 | 0.0 | 0.00 | 0.00 | 0.00 | 77 | 1007.5 |
| 20260509062557 | 42 | 0 | 0.0 | 0.0 | 0.00 | 0.00 | 0.00 | 76 | 1007.5 |
| 20260509062056 | 42 | 0 | 0.0 | 0.0 | 0.00 | 0.00 | 0.00 | 76 | 1007.6 |
| 20260509061559 | 42 | 0 | 0.0 | 0.0 | 0.00 | 0.00 | 0.00 | 76 | 1007.7 |
| 20260509061057 | 43 | 0 | 0.0 | 1.0 | 0.00 | 0.00 | 0.00 | 76 | 1007.7 |